TimeCST,TemperatureF,Dew PointF,Humidity,Sea Level PressureIn,VisibilityMPH,Wind Direction,Wind SpeedMPH,Gust SpeedMPH,PrecipitationIn,Events,Conditions,WindDirDegrees,DateUTC
12:15 AM,39.2,30.2,70,29.76,10.0,WSW,13.8,-,N/A,,Clear,240,2013-01-19 06:15:00
12:35 AM,39.2,28.4,65,29.76,10.0,WSW,12.7,17.3,N/A,,Clear,240,2013-01-19 06:35:00
12:55 AM,39.2,30.2,70,29.77,10.0,WSW,10.4,-,N/A,,Clear,250,2013-01-19 06:55:00
1:15 AM,39.2,28.4,65,29.77,10.0,WSW,8.1,-,N/A,,Clear,240,2013-01-19 07:15:00
1:35 AM,37.4,28.4,70,29.78,10.0,WSW,10.4,-,N/A,,Clear,240,2013-01-19 07:35:00
1:55 AM,37.4,28.4,70,29.80,10.0,West,8.1,-,N/A,,Clear,260,2013-01-19 07:55:00
2:15 AM,37.4,28.4,70,29.80,10.0,West,8.1,-,N/A,,Clear,260,2013-01-19 08:15:00
2:35 AM,37.4,28.4,70,29.80,10.0,West,8.1,-,N/A,,Clear,260,2013-01-19 08:35:00
2:55 AM,37.4,28.4,70,29.80,10.0,West,10.4,-,N/A,,Clear,270,2013-01-19 08:55:00
3:15 AM,37.4,28.4,70,29.80,10.0,WNW,8.1,-,N/A,,Clear,290,2013-01-19 09:15:00
3:35 AM,35.6,28.4,75,29.80,10.0,WNW,6.9,-,N/A,,Scattered Clouds,300,2013-01-19 09:35:00
3:55 AM,37.4,28.4,70,29.80,10.0,West,6.9,-,N/A,,Overcast,270,2013-01-19 09:55:00
4:15 AM,35.6,28.4,75,29.81,10.0,WNW,5.8,-,N/A,,Scattered Clouds,290,2013-01-19 10:15:00
4:35 AM,35.6,28.4,75,29.81,10.0,West,6.9,-,N/A,,Mostly Cloudy,270,2013-01-19 10:35:00
4:55 AM,37.4,28.4,70,29.81,10.0,West,5.8,-,N/A,,Overcast,260,2013-01-19 10:55:00
5:15 AM,37.4,28.4,70,29.80,10.0,West,6.9,-,N/A,,Mostly Cloudy,270,2013-01-19 11:15:00
5:35 AM,35.6,28.4,75,29.80,10.0,WSW,4.6,-,N/A,,Overcast,240,2013-01-19 11:35:00
5:55 AM,35.6,28.4,75,29.81,10.0,SW,3.5,-,N/A,,Overcast,220,2013-01-19 11:55:00
6:15 AM,35.6,28.4,75,29.80,10.0,Calm,Calm,-,N/A,,Overcast,0,2013-01-19 12:15:00
6:35 AM,35.6,28.4,75,29.79,10.0,Calm,Calm,-,N/A,,Overcast,0,2013-01-19 12:35:00
6:55 AM,33.8,28.4,81,29.78,10.0,Calm,Calm,-,N/A,,Overcast,0,2013-01-19 12:55:00
7:15 AM,33.8,28.4,81,29.79,10.0,South,8.1,-,N/A,,Overcast,170,2013-01-19 13:15:00
7:35 AM,33.8,28.4,81,29.79,10.0,SSE,5.8,-,N/A,,Overcast,160,2013-01-19 13:35:00
8:15 AM,35.6,30.2,81,29.78,10.0,SSE,4.6,-,N/A,,Overcast,150,2013-01-19 14:15:00
8:35 AM,35.6,30.2,81,29.79,10.0,South,6.9,-,N/A,,Overcast,170,2013-01-19 14:35:00
8:55 AM,35.6,30.2,81,29.78,10.0,South,8.1,-,N/A,,Overcast,180,2013-01-19 14:55:00
9:15 AM,35.6,30.2,81,29.77,9.0,South,6.9,-,N/A,,Overcast,180,2013-01-19 15:15:00
9:35 AM,35.6,32.0,87,29.77,10.0,SSW,5.8,-,N/A,,Overcast,210,2013-01-19 15:35:00
9:55 AM,35.6,30.2,81,29.75,10.0,South,8.1,-,N/A,,Mostly Cloudy,180,2013-01-19 15:55:00
10:15 AM,35.6,32.0,87,29.74,10.0,South,3.5,-,N/A,,Scattered Clouds,180,2013-01-19 16:15:00
10:35 AM,37.4,32.0,81,29.72,10.0,South,8.1,-,N/A,,Partly Cloudy,180,2013-01-19 16:35:00
10:55 AM,37.4,30.2,75,29.70,10.0,South,9.2,-,N/A,,Mostly Cloudy,180,2013-01-19 16:55:00
11:15 AM,37.4,32.0,81,29.69,10.0,South,9.2,-,N/A,,Mostly Cloudy,180,2013-01-19 17:15:00
11:35 AM,37.4,30.2,75,29.66,10.0,South,12.7,-,N/A,,Mostly Cloudy,180,2013-01-19 17:35:00
11:55 AM,37.4,32.0,81,29.65,10.0,SSW,10.4,-,N/A,,Mostly Cloudy,200,2013-01-19 17:55:00
12:15 PM,39.2,30.2,70,29.62,10.0,SSW,13.8,20.7,N/A,,Clear,200,2013-01-19 18:15:00
12:35 PM,41.0,33.8,76,29.61,10.0,SW,5.8,-,N/A,,Clear,220,2013-01-19 18:35:00
12:55 PM,42.8,32.0,66,29.60,10.0,SW,13.8,18.4,N/A,,Clear,230,2013-01-19 18:55:00
1:15 PM,42.8,32.0,66,29.59,10.0,SW,15.0,-,N/A,,Clear,220,2013-01-19 19:15:00
1:35 PM,44.6,30.2,57,29.59,10.0,SSW,13.8,-,N/A,,Clear,210,2013-01-19 19:35:00
1:55 PM,44.6,32.0,61,29.58,10.0,WSW,12.7,-,N/A,,Clear,240,2013-01-19 19:55:00
2:15 PM,44.6,30.2,57,29.57,10.0,SW,11.5,24.2,N/A,,Clear,230,2013-01-19 20:15:00
2:35 PM,44.6,30.2,57,29.57,10.0,WSW,12.7,19.6,N/A,,Clear,240,2013-01-19 20:35:00
2:55 PM,44.6,30.2,57,29.56,10.0,SW,11.5,20.7,N/A,,Partly Cloudy,230,2013-01-19 20:55:00
3:15 PM,42.8,30.2,61,29.56,10.0,SW,13.8,21.9,N/A,,Scattered Clouds,230,2013-01-19 21:15:00
3:35 PM,42.8,30.2,61,29.56,10.0,WSW,15.0,-,N/A,,Partly Cloudy,240,2013-01-19 21:35:00
3:55 PM,42.8,30.2,61,29.56,10.0,WSW,10.4,17.3,N/A,,Scattered Clouds,240,2013-01-19 21:55:00
4:15 PM,42.8,30.2,61,29.55,10.0,SW,13.8,19.6,N/A,,Overcast,230,2013-01-19 22:15:00
4:35 PM,41.0,30.2,65,29.56,10.0,SW,15.0,20.7,N/A,,Mostly Cloudy,230,2013-01-19 22:35:00
4:55 PM,41.0,30.2,65,29.55,10.0,WSW,15.0,20.7,N/A,,Partly Cloudy,240,2013-01-19 22:55:00
5:15 PM,41.0,30.2,65,29.56,10.0,WSW,13.8,19.6,N/A,,Clear,240,2013-01-19 23:15:00
5:35 PM,42.8,30.2,61,29.56,10.0,WSW,15.0,21.9,N/A,,Mostly Cloudy,250,2013-01-19 23:35:00
5:55 PM,41.0,30.2,65,29.56,10.0,WSW,16.1,24.2,N/A,,Mostly Cloudy,250,2013-01-19 23:55:00
6:15 PM,41.0,28.4,61,29.57,10.0,West,29.9,39.1,N/A,,Overcast,280,2013-01-20 00:15:00
6:35 PM,37.4,28.4,70,29.58,10.0,West,16.1,23.0,N/A,,Mostly Cloudy,280,2013-01-20 00:35:00
6:55 PM,39.2,24.8,56,29.57,10.0,WSW,18.4,26.5,N/A,,Overcast,250,2013-01-20 00:55:00
7:15 PM,37.4,26.6,65,29.58,10.0,West,21.9,39.1,N/A,,Overcast,260,2013-01-20 01:15:00
7:35 PM,33.8,28.4,81,29.55,7.0,West,17.3,24.2,N/A,,Overcast,270,2013-01-20 01:35:00
7:55 PM,35.6,28.4,75,29.55,10.0,West,15.0,23.0,N/A,,Mostly Cloudy,270,2013-01-20 01:55:00
8:15 PM,35.6,26.6,70,29.55,9.0,West,18.4,36.8,N/A,,Scattered Clouds,280,2013-01-20 02:15:00
8:35 PM,33.8,26.6,75,29.56,2.5,West,24.2,38.0,N/A,,Overcast,260,2013-01-20 02:35:00
8:55 PM,32.0,17.6,55,29.59,10.0,West,36.8,48.3,N/A,,Overcast,270,2013-01-20 02:55:00
9:15 PM,28.4,14.0,55,29.61,10.0,West,27.6,52.9,N/A,,Mostly Cloudy,270,2013-01-20 03:15:00
9:35 PM,24.8,10.4,54,29.64,10.0,West,33.4,48.3,N/A,,Mostly Cloudy,280,2013-01-20 03:35:00
9:55 PM,23.0,8.6,54,29.66,10.0,West,27.6,46.0,N/A,,Overcast,270,2013-01-20 03:55:00
10:15 PM,21.2,10.4,63,29.69,10.0,West,26.5,43.7,N/A,,Overcast,280,2013-01-20 04:15:00
10:35 PM,19.4,8.6,63,29.71,10.0,West,31.1,46.0,N/A,,Overcast,270,2013-01-20 04:35:00
10:55 PM,19.4,6.8,58,29.74,10.0,West,31.1,41.4,N/A,,Overcast,280,2013-01-20 04:55:00
11:15 PM,17.6,6.8,63,29.75,10.0,West,29.9,40.3,N/A,,Overcast,280,2013-01-20 05:15:00
11:35 PM,17.6,1.4,49,29.77,10.0,WNW,34.5,43.7,N/A,,Mostly Cloudy,290,2013-01-20 05:35:00
11:55 PM,15.8,3.2,58,29.80,10.0,West,28.8,41.4,N/A,,Overcast,280,2013-01-20 05:55:00